TimeAKST,TemperatureF,Dew PointF,Humidity,Sea Level PressureIn,VisibilityMPH,Wind Direction,Wind SpeedMPH,Gust SpeedMPH,PrecipitationIn,Events,Conditions,WindDirDegrees,DateUTC
12:53 AM,-6.0,-9.9,83,30.12,10.0,Calm,Calm,-,N/A,,Mostly Cloudy,0,2013-02-16 09:53:00
1:53 AM,-6.0,-11.0,79,30.12,10.0,ENE,3.5,-,N/A,,Mostly Cloudy,70,2013-02-16 10:53:00
3:53 AM,-5.1,-9.9,80,30.14,10.0,Calm,Calm,-,N/A,,Overcast,0,2013-02-16 12:53:00
4:53 AM,-9.9,-14.1,82,30.14,10.0,Calm,Calm,-,N/A,,Scattered Clouds,0,2013-02-16 13:53:00
5:53 AM,-11.9,-16.1,82,30.15,10.0,Calm,Calm,-,N/A,,Mostly Cloudy,0,2013-02-16 14:53:00
6:53 AM,-16.1,-22.0,74,30.16,10.0,Calm,Calm,-,N/A,,Scattered Clouds,0,2013-02-16 15:53:00
7:53 AM,-20.0,-24.0,82,30.17,10.0,Calm,Calm,-,N/A,,Scattered Clouds,0,2013-02-16 16:53:00
8:53 AM,-18.0,-23.1,78,30.17,10.0,East,3.5,-,N/A,,Mostly Cloudy,80,2013-02-16 17:53:00
9:53 AM,-16.1,-20.0,82,30.16,10.0,Calm,Calm,-,N/A,,Mostly Cloudy,0,2013-02-16 18:53:00
10:53 AM,-11.0,-17.0,75,30.17,10.0,Calm,Calm,-,N/A,,Mostly Cloudy,0,2013-02-16 19:53:00
11:53 AM,-7.1,-11.0,83,30.16,10.0,North,4.6,-,N/A,,Mostly Cloudy,360,2013-02-16 20:53:00
12:53 PM,-4.0,-9.0,79,30.16,10.0,ENE,3.5,-,N/A,,Mostly Cloudy,60,2013-02-16 21:53:00
1:53 PM,-2.0,-7.1,79,30.14,10.0,Calm,Calm,-,N/A,,Mostly Cloudy,0,2013-02-16 22:53:00
2:53 PM,-0.0,-6.0,76,30.12,10.0,Calm,Calm,-,N/A,,Mostly Cloudy,0,2013-02-16 23:53:00
3:53 PM,-0.0,-5.1,79,30.09,10.0,Calm,Calm,-,N/A,,Mostly Cloudy,0,2013-02-17 00:53:00
4:53 PM,-2.9,-9.0,75,30.07,10.0,North,3.5,-,N/A,,Partly Cloudy,10,2013-02-17 01:53:00
5:53 PM,-7.1,-11.9,79,30.06,10.0,Calm,Calm,-,N/A,,Partly Cloudy,0,2013-02-17 02:53:00
6:53 PM,-11.0,-14.1,86,30.04,10.0,NNE,3.5,-,N/A,,Partly Cloudy,20,2013-02-17 03:53:00
7:53 PM,-9.0,-13.0,83,30.03,10.0,NNE,4.6,-,N/A,,Partly Cloudy,30,2013-02-17 04:53:00
8:53 PM,-9.9,-15.0,78,30.00,10.0,NE,5.8,-,N/A,,Scattered Clouds,50,2013-02-17 05:53:00
9:53 PM,-6.0,-11.9,75,29.99,10.0,East,3.5,-,N/A,,Mostly Cloudy,90,2013-02-17 06:53:00
10:53 PM,-5.1,-11.0,76,29.96,10.0,NE,6.9,-,N/A,,Mostly Cloudy,40,2013-02-17 07:53:00
11:53 PM,-7.1,-13.0,75,29.94,10.0,Calm,Calm,-,N/A,,Mostly Cloudy,0,2013-02-17 08:53:00